SCP
0 0 0 0 0 0 0 0 0 0 0 0 0 0 0 0 0 0 0 0 0 0 0 0 0 0 0 0 0 0 0 0 0 0 0 0 0 0 0 0 0 0 0
0 0 0 0 0 0 0 0 0 0 0 0 0 0 0 0 0 0 0 0 0 0 0 0 0 0 0 0 0 0 0 0 0 0 0 0 0 0 0 0 0 0 0
0 0 0 0 0 0 0 0 0 0 0 0 0 0 0 0 0 0 0 0 0 0 0 0 0 0 0 0 0 0 0 0 0 0 0 0 0 0 0 0 0 0 0
0 0 0 0 0 0 0 0 0 0 0 0 0 0 0 0 0 0 0 0 0 0 0 0 0 0 0 0 0 0 0 0 0 0 0 0 0 0 0 0 0 0 0
0 0 0 0 0 0 0 0 0 0 0 0 0 0 0 0 0 0 0 0 0 0 0 0 0 0 0 0 0 0 0 0 0 0 0 0 0 0 0 0 0 0 0
0 0 0 0 0 0 0 0 0 0 0 0 0 0 0 0 0 0 0 0 0 0 0 0 0 0 0 0 0 0 0 0 0 0 0 0 0 0 0 0 0 0 0
0 0 0 0 0 0 0 0 0 0 0 0 0 0 0 0 0 0 0 0 0 0 0 0 0 0 0 0 0 0 0 0 0 0 0 0 0 0 0 0 0 0 0
0 0 0 0 0 0 0 0 0 0 0 0 0 0 0 0 0 0 0 0 0 0 0 0 0 0 0 0 0 0 0 0 0 0 0 0 0 0 0 0 0 0 0
0 0 0 0 0 0 0 0 0 0 0 0 0 0 0 0 0 0 0 0 0 0 0 0 0 0 0 0 0 0 0 0 0 0 0 0 0 0 0 0 0 0 0
0 0 0 0 0 0 0 0 0 0 0 0 0 0 0 0 0 0 0 0 0 0 0 0 0 0 0 0 0 0 0 0 0 0 0 0 0 0 0 0 0 0 0
0 0 0 0 0 -0 -0 0 -0 0 -0 -0 0 -0 -0 0 0 0 0 0 0 0 0 0 0 0 0 0 0 0 0 0 0 0 0 0 0 0 0 0 0 0 0
0 0 0 0 0 0 0 -0 -0 0 0 -0 -0 0 -0 -0 0 -0 0 0 0 0 0 0 0 0 0 0 0 0 0 0 0 0 0 0 0 0 0 0 0 0 0
0 0 0 0 -0 0 0 0 0 0 0 0 0 0 0 0 0 0 -0 -0 -0 0 0 0 0 0 0 0 0 0 0 0 0 0 0 0 0 0 0 0 0 0 0
0 0 0 0 0 0 0 0 0 -0 0 0 0 0 0 0 0 0 0 -0 0 -0 0 0 0 0 0 0 0 0 0 0 0 0 0 0 0 0 0 0 0 0 0
0 0 0 0 0 0 0 0 0 0 0 0 0 0 0 0 0 0 0 0 -0 -0 0 0 0 0 0 0 0 0 0 -0 0 0 0 0 0 0 0 0 0 0 0
0 0 0 0 0 0 0 0 0 0 0 0 0 0 0 0 0 0 0 0 0 0 0 0 0 0 0 0 0 0 0 0 -0 0 0 0 0 0 0 0 0 -0 0
0 0 0 0 0 0 0 0 0 0 0 0 0 0 0 0 0 0 0 0 0 0 0 0 0 0 0 0 0 0 0 -0 0 0 0 0 0 0 0 0 0 -0 -0
0 0 0 0 0 0 0 0 0 0 0 0 0 0 0 0 0 0 0 0 0 0 0 0 0 0 0 0 0 0 0 -0 0 -0 0 -0 -0 0 0 0 0 -0 -0
0 0 0 0 0 0 0 0 0 0 0 0 0 0 0 0 0 0 0 0 0 0 0 0 0 0 0 0 0 0 -0 0 0 0 -0 -0 -0 0 0 -0 0 0 0
0 0 0 0 0 0 0 0 0 0 0 0 0 0 0 0 0 0 0 0 0 0 0 0 0 0 0 0 0 -0 0 0 0 0 -0 -0 0 -0 -0 -0 0 0 -0
0 0 0 0 0 0 0 0 0 0 0 0 0 0 0 0 0 0 0 0 0 0 0 0 0 0 0 0 0 0 0 -0 0 -0 -0 0 0 0 -0 -0 -0 -0 -0
0 0 0 0 0 0 0 0 0 0 0 0 0 0 0 0 0 0 0 0 0 0 0 0 0 0 0 0 0 0 0 0 -0 -0 -0 0 0 0 -0 -0 -0 -0 -0
0 0 0 0 0 0 0 0 0 0 0 0 0 0 0 0 0 0 0 0 0 0 0 0 0 0 0 0 0 0 0 0 0 0 0 0 0 0 -0 0 0 -0 -0
0 0 0 0 0 0 0 0 0 0 0 0 0 0 0 0 0 0 0 0 0 0 0 0 0 0 0 0 0 0 0 0 0 0 0 0 0 0 0 0 -0 -0 -0
0 0 0 0 0 0 0 0 0 0 0 0 0 0 0 0 0 0 0 0 0 0 0 0 0 0 0 0 0 0 0 0 0 0 0 0 0 0 -0 0 0 0 -0
0 0 0 0 0 0 0 0 0 0 0 0 0 0 0 0 0 0 0 0 0 0 0 0 0 0 0 0 0 0 0 0 0 0 0 0 0 0 -0 0 0 0 0
Wind_Speed_500mb
16 18 18 17 16 15 12 9 9 8 8 11 13 17 10 8 7 6 9 15 21 22 18 17 15 17 17 16 19 22 30 34 35 34 39 40 33 24 30 37 39 43 51
22 22 22 21 22 22 22 20 20 17 14 18 18 22 15 11 4 5 11 12 11 10 12 14 15 15 16 21 31 32 38 41 41 41 41 43 40 42 40 41 42 45 52
19 20 19 19 23 22 20 19 21 21 18 22 24 20 12 14 14 15 16 16 15 12 10 9 12 17 20 30 34 35 39 41 39 43 44 47 47 45 49 52 54 53 36
16 17 17 20 23 21 19 18 22 24 22 23 30 21 16 18 23 30 27 26 25 23 19 18 17 17 19 24 32 33 36 40 45 46 46 45 43 47 49 49 49 51 48
16 17 18 20 22 21 21 23 25 27 23 23 29 19 20 26 26 24 36 32 30 27 26 25 25 26 30 30 31 35 37 40 42 44 45 46 46 44 45 46 48 52 54
19 20 20 21 22 22 25 27 28 29 26 26 28 22 17 22 16 25 28 34 29 25 26 24 27 32 35 37 39 42 43 45 48 49 49 50 49 49 49 49 48 52 51
19 20 21 22 24 26 30 29 27 29 31 25 25 24 16 12 16 18 28 34 28 26 22 23 29 32 36 38 40 43 45 47 49 53 55 56 56 54 52 53 55 56 55
22 23 24 26 28 28 28 30 32 32 32 29 14 13 10 7 11 11 25 34 31 25 23 28 33 39 43 44 47 48 51 53 56 59 59 61 62 63 64 62 61 60 60
23 25 27 28 29 30 32 33 33 33 33 29 28 14 6 5 8 4 21 32 28 22 20 22 28 35 41 44 45 48 52 56 61 65 67 68 69 70 69 68 67 66 64
23 26 28 29 31 32 31 33 33 32 29 30 28 26 17 16 13 9 15 30 30 24 25 21 27 34 42 43 44 48 51 55 59 62 66 70 74 76 77 77 75 71 69
21 24 26 27 28 29 30 30 30 31 32 30 29 23 15 14 17 14 21 40 28 29 24 25 27 35 43 48 50 53 56 60 63 67 70 74 76 79 80 82 82 79 74
17 20 22 24 26 26 27 29 29 29 29 29 27 26 26 23 27 24 30 38 35 31 20 26 26 36 46 50 52 55 60 64 67 70 73 76 79 81 83 87 86 85 78
14 17 20 22 24 26 27 27 27 27 27 26 25 24 23 23 23 25 29 34 38 37 24 28 27 38 46 50 52 54 56 60 63 67 71 75 77 80 82 87 89 88 87
12 15 18 20 22 23 25 26 27 28 28 28 26 24 23 23 23 26 29 33 39 33 31 33 34 45 49 54 58 59 61 62 64 67 70 73 77 79 81 83 88 92 98
11 14 17 19 21 23 24 26 27 27 27 27 26 25 24 24 24 25 27 30 31 24 37 36 51 51 54 57 60 63 67 69 69 70 73 75 77 79 79 82 87 93 100
12 16 18 20 22 24 26 27 28 29 30 30 30 29 28 28 28 28 29 30 31 34 37 54 55 59 60 60 61 63 66 69 70 71 74 76 78 80 81 85 89 94 101
14 17 20 22 24 25 27 29 30 32 32 33 33 33 33 32 33 33 34 35 35 40 54 61 59 59 60 65 63 65 68 72 73 72 75 76 79 82 83 89 92 97 101
17 19 22 23 24 27 29 31 33 35 37 37 38 38 38 37 37 37 39 39 41 44 55 65 63 64 63 64 66 71 72 73 76 75 77 78 82 84 88 94 95 97 102
22 22 25 25 26 28 31 33 36 39 41 42 42 43 43 43 42 43 43 46 48 50 52 62 69 66 66 65 69 71 76 77 76 77 80 81 85 90 95 96 96 99 104
29 26 28 29 28 31 33 35 39 42 45 46 47 48 48 48 49 49 51 51 52 56 57 64 68 70 69 68 71 80 85 80 86 84 85 87 94 98 95 97 96 103 109
35 34 34 33 33 34 35 40 44 47 50 51 51 52 53 53 52 53 57 57 58 61 64 67 71 71 71 71 76 79 83 87 92 86 92 96 104 107 102 106 106 111 114
40 39 40 39 39 38 41 46 51 55 56 58 60 59 58 58 57 57 58 58 58 60 64 65 69 70 68 69 72 75 78 87 100 88 105 110 109 109 113 116 115 116 115
45 44 45 45 46 47 49 53 55 61 63 63 64 65 65 63 62 63 63 63 64 62 63 63 66 67 67 63 65 70 73 85 91 94 98 115 109 110 119 122 117 118 123
48 49 49 49 53 53 52 56 60 65 68 69 68 67 68 67 64 66 68 71 69 67 63 63 61 62 60 54 58 66 82 86 89 89 87 107 106 120 124 124 119 123 128
47 49 52 54 57 59 58 61 65 69 73 74 72 70 69 70 67 64 69 74 74 72 64 59 57 55 50 51 59 78 82 79 90 93 89 73 109 120 126 127 126 129 132
49 52 55 57 60 65 65 67 69 72 79 79 76 72 69 69 68 67 68 69 75 75 67 68 67 61 63 65 69 76 69 70 71 87 71 83 106 101 88 116 129 136 140
Wind_Direction_500mb
52 51 48 44 44 46 37 35 27 29 52 76 90 90 109 140 211 242 283 284 285 297 301 292 326 360 319 342 336 286 282 270 276 272 277 282 282 287 282 279 277 276 276
61 57 57 54 54 52 48 49 50 53 73 101 99 88 108 114 101 347 336 334 334 327 321 335 332 348 332 324 313 309 305 302 303 299 306 303 304 306 300 284 286 288 285
54 53 52 53 54 50 50 48 48 52 82 109 103 93 88 77 68 60 59 58 54 43 22 12 7 348 353 22 7 338 349 336 333 322 320 312 311 305 300 300 300 293 292
48 46 46 47 49 46 47 51 51 55 86 112 102 87 81 69 78 65 62 59 59 57 56 49 38 18 7 14 10 2 357 353 351 348 345 337 327 317 313 308 304 300 296
46 43 46 49 47 45 48 49 50 54 89 113 105 99 80 69 82 72 60 57 55 57 57 61 53 44 34 25 13 10 7 8 6 360 354 351 348 339 326 319 321 309 297
44 43 44 47 48 50 54 53 53 55 88 111 103 106 93 56 63 60 50 44 48 52 51 55 49 41 33 27 21 18 15 11 7 3 357 353 349 346 346 343 332 323 318
50 49 47 46 46 45 48 52 56 65 82 115 121 119 111 50 22 53 39 35 40 44 51 53 42 34 30 27 25 22 20 19 15 12 7 3 359 354 347 341 343 341 337
49 47 47 47 46 47 46 48 50 52 60 74 133 142 157 195 353 36 28 29 30 37 49 43 36 30 26 26 26 24 23 22 20 18 14 9 4 359 355 351 344 339 337
48 45 44 43 41 41 41 41 45 46 50 52 56 69 75 28 12 2 20 24 28 39 44 34 35 25 24 21 19 19 18 17 17 14 12 10 8 4 359 354 348 343 337
48 44 41 38 36 36 36 36 37 38 40 49 49 48 52 35 21 338 345 24 27 40 31 24 30 16 17 15 14 14 13 13 13 9 7 6 4 2 359 356 351 345 338
46 42 38 35 32 30 31 31 30 30 29 30 35 45 41 21 4 355 340 354 31 27 19 11 13 6 5 3 4 5 5 6 6 4 2 1 359 358 356 355 352 348 342
42 37 33 30 29 27 25 24 23 22 23 22 21 15 12 12 2 360 343 345 353 10 16 3 356 356 356 355 355 356 357 357 358 356 355 355 354 353 353 352 349 347 341
33 26 23 23 20 18 17 16 15 14 13 11 11 8 1 354 352 345 339 338 339 347 0 353 346 349 347 346 347 346 348 348 348 348 347 348 347 347 347 348 346 344 341
20 13 9 10 12 10 7 6 4 4 3 2 360 357 352 345 343 339 336 334 335 334 338 341 341 341 341 343 342 340 341 341 342 342 341 342 340 341 342 343 342 341 340
8 359 356 354 356 359 358 356 355 354 354 352 351 348 343 338 336 332 328 326 328 322 318 335 328 337 339 340 339 339 339 339 340 341 340 339 340 339 339 339 338 339 337
343 348 345 342 342 345 346 344 343 343 343 344 343 341 336 333 331 328 323 320 318 312 298 314 325 329 336 335 337 337 337 335 337 339 338 338 339 337 338 337 337 336 334
321 336 336 332 330 331 333 334 334 335 334 334 335 333 329 326 325 322 318 317 315 311 305 312 319 325 329 330 332 333 333 334 336 339 337 337 336 335 335 334 335 335 332
298 319 325 322 320 321 323 326 327 327 326 325 325 325 324 320 319 317 315 314 312 311 308 310 316 321 325 327 328 330 331 332 334 337 335 336 335 333 334 332 334 334 332
282 304 314 311 312 312 315 318 318 319 318 319 318 317 318 316 314 312 312 311 311 309 308 307 311 317 320 324 324 326 328 330 332 334 333 335 333 332 333 331 334 333 330
276 291 300 300 304 305 309 311 311 311 312 313 313 312 312 311 310 309 307 309 310 308 307 306 309 314 318 322 324 327 326 329 329 333 333 335 330 329 332 331 333 332 331
270 280 289 291 292 294 301 304 304 305 305 306 307 308 307 306 305 306 305 306 307 307 308 308 308 312 315 318 320 324 324 326 327 331 330 329 326 329 333 333 335 334 331
266 274 282 282 282 288 294 298 301 301 302 303 303 303 303 302 302 301 301 300 301 300 301 301 303 304 310 306 314 323 325 324 323 327 325 323 327 330 332 332 334 330 327
261 269 275 278 282 286 291 295 297 297 298 299 299 298 297 299 299 298 297 297 297 297 295 294 295 298 301 306 319 323 312 313 313 319 321 319 327 327 330 329 330 329 326
262 269 274 277 282 285 290 292 293 293 294 295 295 293 291 292 294 294 294 293 294 294 293 292 290 296 305 312 309 301 308 311 309 316 323 318 325 327 326 326 330 327 325
266 271 276 281 284 286 287 288 288 288 289 290 290 288 287 287 290 289 290 293 294 293 294 296 297 292 287 282 294 309 311 310 313 316 322 318 323 324 327 327 329 324 324
278 281 283 286 288 288 289 288 289 289 289 289 288 286 286 286 288 288 289 292 292 296 299 299 299 296 299 298 303 307 304 306 311 315 313 317 320 328 322 322 325 324 324
Wind_Speed_850mb
16 18 18 17 16 15 12 9 9 8 8 11 13 17 10 8 7 6 9 15 21 22 18 17 15 17 17 16 19 22 30 34 35 34 39 40 33 24 30 37 39 43 51
22 22 22 21 22 22 22 20 20 17 14 18 18 22 15 11 4 5 11 12 11 10 12 14 15 15 16 21 31 32 38 41 41 41 41 43 40 42 40 41 42 45 52
19 20 19 19 23 22 20 19 21 21 18 22 24 20 12 14 14 15 16 16 15 12 10 9 12 17 20 30 34 35 39 41 39 43 44 47 47 45 49 52 54 53 36
16 17 17 20 23 21 19 18 22 24 22 23 30 21 16 18 23 30 27 26 25 23 19 18 17 17 19 24 32 33 36 40 45 46 46 45 43 47 49 49 49 51 48
16 17 18 20 22 21 21 23 25 27 23 23 29 19 20 26 26 24 36 32 30 27 26 25 25 26 30 30 31 35 37 40 42 44 45 46 46 44 45 46 48 52 54
19 20 20 21 22 22 25 27 28 29 26 26 28 22 17 22 16 25 28 34 29 25 26 24 27 32 35 37 39 42 43 45 48 49 49 50 49 49 49 49 48 52 51
19 20 21 22 24 26 30 29 27 29 31 25 25 24 16 12 16 18 28 34 28 26 22 23 29 32 36 38 40 43 45 47 49 53 55 56 56 54 52 53 55 56 55
22 23 24 26 28 28 28 30 32 32 32 29 14 13 10 7 11 11 25 34 31 25 23 28 33 39 43 44 47 48 51 53 56 59 59 61 62 63 64 62 61 60 60
23 25 27 28 29 30 32 33 33 33 33 29 28 14 6 5 8 4 21 32 28 22 20 22 28 35 41 44 45 48 52 56 61 65 67 68 69 70 69 68 67 66 64
23 26 28 29 31 32 31 33 33 32 29 30 28 26 17 16 13 9 15 30 30 24 25 21 27 34 42 43 44 48 51 55 59 62 66 70 74 76 77 77 75 71 69
21 24 26 27 28 29 30 30 30 31 32 30 29 23 15 14 17 14 21 40 28 29 24 25 27 35 43 48 50 53 56 60 63 67 70 74 76 79 80 82 82 79 74
17 20 22 24 26 26 27 29 29 29 29 29 27 26 26 23 27 24 30 38 35 31 20 26 26 36 46 50 52 55 60 64 67 70 73 76 79 81 83 87 86 85 78
14 17 20 22 24 26 27 27 27 27 27 26 25 24 23 23 23 25 29 34 38 37 24 28 27 38 46 50 52 54 56 60 63 67 71 75 77 80 82 87 89 88 87
12 15 18 20 22 23 25 26 27 28 28 28 26 24 23 23 23 26 29 33 39 33 31 33 34 45 49 54 58 59 61 62 64 67 70 73 77 79 81 83 88 92 98
11 14 17 19 21 23 24 26 27 27 27 27 26 25 24 24 24 25 27 30 31 24 37 36 51 51 54 57 60 63 67 69 69 70 73 75 77 79 79 82 87 93 100
12 16 18 20 22 24 26 27 28 29 30 30 30 29 28 28 28 28 29 30 31 34 37 54 55 59 60 60 61 63 66 69 70 71 74 76 78 80 81 85 89 94 101
14 17 20 22 24 25 27 29 30 32 32 33 33 33 33 32 33 33 34 35 35 40 54 61 59 59 60 65 63 65 68 72 73 72 75 76 79 82 83 89 92 97 101
17 19 22 23 24 27 29 31 33 35 37 37 38 38 38 37 37 37 39 39 41 44 55 65 63 64 63 64 66 71 72 73 76 75 77 78 82 84 88 94 95 97 102
22 22 25 25 26 28 31 33 36 39 41 42 42 43 43 43 42 43 43 46 48 50 52 62 69 66 66 65 69 71 76 77 76 77 80 81 85 90 95 96 96 99 104
29 26 28 29 28 31 33 35 39 42 45 46 47 48 48 48 49 49 51 51 52 56 57 64 68 70 69 68 71 80 85 80 86 84 85 87 94 98 95 97 96 103 109
35 34 34 33 33 34 35 40 44 47 50 51 51 52 53 53 52 53 57 57 58 61 64 67 71 71 71 71 76 79 83 87 92 86 92 96 104 107 102 106 106 111 114
40 39 40 39 39 38 41 46 51 55 56 58 60 59 58 58 57 57 58 58 58 60 64 65 69 70 68 69 72 75 78 87 100 88 105 110 109 109 113 116 115 116 115
45 44 45 45 46 47 49 53 55 61 63 63 64 65 65 63 62 63 63 63 64 62 63 63 66 67 67 63 65 70 73 85 91 94 98 115 109 110 119 122 117 118 123
48 49 49 49 53 53 52 56 60 65 68 69 68 67 68 67 64 66 68 71 69 67 63 63 61 62 60 54 58 66 82 86 89 89 87 107 106 120 124 124 119 123 128
47 49 52 54 57 59 58 61 65 69 73 74 72 70 69 70 67 64 69 74 74 72 64 59 57 55 50 51 59 78 82 79 90 93 89 73 109 120 126 127 126 129 132
49 52 55 57 60 65 65 67 69 72 79 79 76 72 69 69 68 67 68 69 75 75 67 68 67 61 63 65 69 76 69 70 71 87 71 83 106 101 88 116 129 136 140
Wind_Direction_850mb
52 51 48 44 44 46 37 35 27 29 52 76 90 90 109 140 211 242 283 284 285 297 301 292 326 360 319 342 336 286 282 270 276 272 277 282 282 287 282 279 277 276 276
61 57 57 54 54 52 48 49 50 53 73 101 99 88 108 114 101 347 336 334 334 327 321 335 332 348 332 324 313 309 305 302 303 299 306 303 304 306 300 284 286 288 285
54 53 52 53 54 50 50 48 48 52 82 109 103 93 88 77 68 60 59 58 54 43 22 12 7 348 353 22 7 338 349 336 333 322 320 312 311 305 300 300 300 293 292
48 46 46 47 49 46 47 51 51 55 86 112 102 87 81 69 78 65 62 59 59 57 56 49 38 18 7 14 10 2 357 353 351 348 345 337 327 317 313 308 304 300 296
46 43 46 49 47 45 48 49 50 54 89 113 105 99 80 69 82 72 60 57 55 57 57 61 53 44 34 25 13 10 7 8 6 360 354 351 348 339 326 319 321 309 297
44 43 44 47 48 50 54 53 53 55 88 111 103 106 93 56 63 60 50 44 48 52 51 55 49 41 33 27 21 18 15 11 7 3 357 353 349 346 346 343 332 323 318
50 49 47 46 46 45 48 52 56 65 82 115 121 119 111 50 22 53 39 35 40 44 51 53 42 34 30 27 25 22 20 19 15 12 7 3 359 354 347 341 343 341 337
49 47 47 47 46 47 46 48 50 52 60 74 133 142 157 195 353 36 28 29 30 37 49 43 36 30 26 26 26 24 23 22 20 18 14 9 4 359 355 351 344 339 337
48 45 44 43 41 41 41 41 45 46 50 52 56 69 75 28 12 2 20 24 28 39 44 34 35 25 24 21 19 19 18 17 17 14 12 10 8 4 359 354 348 343 337
48 44 41 38 36 36 36 36 37 38 40 49 49 48 52 35 21 338 345 24 27 40 31 24 30 16 17 15 14 14 13 13 13 9 7 6 4 2 359 356 351 345 338
46 42 38 35 32 30 31 31 30 30 29 30 35 45 41 21 4 355 340 354 31 27 19 11 13 6 5 3 4 5 5 6 6 4 2 1 359 358 356 355 352 348 342
42 37 33 30 29 27 25 24 23 22 23 22 21 15 12 12 2 360 343 345 353 10 16 3 356 356 356 355 355 356 357 357 358 356 355 355 354 353 353 352 349 347 341
33 26 23 23 20 18 17 16 15 14 13 11 11 8 1 354 352 345 339 338 339 347 0 353 346 349 347 346 347 346 348 348 348 348 347 348 347 347 347 348 346 344 341
20 13 9 10 12 10 7 6 4 4 3 2 360 357 352 345 343 339 336 334 335 334 338 341 341 341 341 343 342 340 341 341 342 342 341 342 340 341 342 343 342 341 340
8 359 356 354 356 359 358 356 355 354 354 352 351 348 343 338 336 332 328 326 328 322 318 335 328 337 339 340 339 339 339 339 340 341 340 339 340 339 339 339 338 339 337
343 348 345 342 342 345 346 344 343 343 343 344 343 341 336 333 331 328 323 320 318 312 298 314 325 329 336 335 337 337 337 335 337 339 338 338 339 337 338 337 337 336 334
321 336 336 332 330 331 333 334 334 335 334 334 335 333 329 326 325 322 318 317 315 311 305 312 319 325 329 330 332 333 333 334 336 339 337 337 336 335 335 334 335 335 332
298 319 325 322 320 321 323 326 327 327 326 325 325 325 324 320 319 317 315 314 312 311 308 310 316 321 325 327 328 330 331 332 334 337 335 336 335 333 334 332 334 334 332
282 304 314 311 312 312 315 318 318 319 318 319 318 317 318 316 314 312 312 311 311 309 308 307 311 317 320 324 324 326 328 330 332 334 333 335 333 332 333 331 334 333 330
276 291 300 300 304 305 309 311 311 311 312 313 313 312 312 311 310 309 307 309 310 308 307 306 309 314 318 322 324 327 326 329 329 333 333 335 330 329 332 331 333 332 331
270 280 289 291 292 294 301 304 304 305 305 306 307 308 307 306 305 306 305 306 307 307 308 308 308 312 315 318 320 324 324 326 327 331 330 329 326 329 333 333 335 334 331
266 274 282 282 282 288 294 298 301 301 302 303 303 303 303 302 302 301 301 300 301 300 301 301 303 304 310 306 314 323 325 324 323 327 325 323 327 330 332 332 334 330 327
261 269 275 278 282 286 291 295 297 297 298 299 299 298 297 299 299 298 297 297 297 297 295 294 295 298 301 306 319 323 312 313 313 319 321 319 327 327 330 329 330 329 326
262 269 274 277 282 285 290 292 293 293 294 295 295 293 291 292 294 294 294 293 294 294 293 292 290 296 305 312 309 301 308 311 309 316 323 318 325 327 326 326 330 327 325
266 271 276 281 284 286 287 288 288 288 289 290 290 288 287 287 290 289 290 293 294 293 294 296 297 292 287 282 294 309 311 310 313 316 322 318 323 324 327 327 329 324 324
278 281 283 286 288 288 289 288 289 289 289 289 288 286 286 286 288 288 289 292 292 296 299 299 299 296 299 298 303 307 304 306 311 315 313 317 320 328 322 322 325 324 324